Meteo Giornale » Osservazioni meteo Italia » Bergamo-Orio Al Serio

ore: 16:50 - Osservazioni Meteo Bergamo-Orio Al Serio
Lat. 45° 40' N Lon. 9° 42' E Alt. 238 metri s.l.m.

sereno Europe/Rome

30 °C

Sereno

Temp. 24 Ore

21 °C

30 °C

Sud-Est

7.4 Km/h

Dew point 16 °C

Umidità 42 %

Visibilità  10 Km

Il sole sorge alle ore 06:27

Il sole tramonta alle ore 20:21

Data e Ora Cielo e Fenomeni T °C DP °C Um. % Pres. hPa Vis. km Vento km/h
Oggi h: 16:50 sereno Sereno 30 16 42 1018 10 SE 7.4
Oggi h: 16:20 poco_nuvoloso Poco Nuvoloso 30 17 45 1018 10 N 7.4
Oggi h: 15:50 poco_nuvoloso Poco Nuvoloso 30 18 48 1018 10 N 5.5
Oggi h: 15:20 nuvoloso Nuvoloso 30 18 48 1019 10 N 5.5
Oggi h: 14:50 nuvoloso Nuvoloso 29 18 51 1019 10 N 3.7
Oggi h: 14:20 molto_nuvoloso Molto Nuvoloso 29 18 51 1019 10 O/SO 7.4
Oggi h: 13:50 molto_nuvoloso Molto Nuvoloso 28 18 54 1019 10 N 5.5
Oggi h: 13:20 nuvoloso Nuvoloso 29 19 54 1019 10 N 5.5
Oggi h: 12:50 nuvoloso Nuvoloso 28 17 51 1019 10 O/NO 7.4
Oggi h: 12:20 nuvoloso Nuvoloso 27 17 54 1019 10 O/SO 9.3
Oggi h: 11:50 nuvoloso Nuvoloso 27 17 54 1019 10 N 3.7
Oggi h: 11:20 nuvoloso Nuvoloso 26 18 61 1019 10 N 5.5
Oggi h: 10:50 nuvoloso Nuvoloso 26 19 65 1019 10 N 5.5
Oggi h: 10:20 nuvoloso Nuvoloso 25 18 65 1019 10 N 3.7
Oggi h: 09:50 nuvoloso Nuvoloso 24 19 73 1019 10 N 3.7
Oggi h: 09:20 nuvoloso Nuvoloso 23 20 83 1019 10 N 1.8
Oggi h: 08:50 nuvoloso Nuvoloso 22 20 88 1019 10 N 3.7
Oggi h: 08:20 molto_nuvoloso Molto Nuvoloso 22 20 88 1019 10 N 3.7
Oggi h: 07:50 molto_nuvoloso Molto Nuvoloso 22 19 83 1018 10 N 3.7
Oggi h: 07:20 molto_nuvoloso Molto Nuvoloso 21 20 94 1018 10 N 3.7
Oggi h: 06:50 nuvoloso Nuvoloso 21 20 94 1018 10 N 3.7
Oggi h: 06:20 coperto_pioggia Pioggia Debole 21 19 88 1018 10 N 3.7
Oggi h: 05:50 nuvoloso Nuvoloso 21 19 88 1017 10 N 9.3
Oggi h: 05:20 sereno Sereno 21 19 88 1017 10 N 5.5
Oggi h: 04:50 sereno Sereno 21 19 88 1017 10 N 7.4
Oggi h: 04:20 sereno Sereno 21 19 88 1017 10 N 5.5
Oggi h: 03:50 sereno Sereno 22 18 78 1017 10 N 5.5
Oggi h: 03:20 sereno Sereno 21 19 88 1017 10 N 7.4
Oggi h: 02:50 sereno Sereno 21 19 88 1017 10 N 5.5
Oggi h: 02:20 nuvoloso Nuvoloso 22 19 83 1017 10 N 9.3
Oggi h: 01:50 nuvoloso Nuvoloso 22 19 83 1017 10 N/NE 7.4
Oggi h: 01:20 nuvoloso Nuvoloso 22 19 83 1017 10 N 9.3
Oggi h: 00:50 nuvoloso Nuvoloso 22 20 88 1017 10 N 3.7
Oggi h: 00:20 nuvoloso Nuvoloso 22 20 88 1018 10 N 5.5
Ieri h: 23:50 nuvoloso Nuvoloso 22 20 88 1017 10 NE 9.3
Ieri h: 23:20 nuvoloso Nuvoloso 22 20 88 1017 10 N/NE 13
Ieri h: 22:50 nuvoloso Nuvoloso 22 19 83 1017 10 N/NE 13
Ieri h: 22:20 nuvoloso Nuvoloso 22 20 88 1017 10 N/NE 16.7
Ieri h: 21:50 nuvoloso_temporali Temporale con Pioggia Debole 21 21 100 1018 8 NO 29.6
Ieri h: 21:20 nuvoloso_temporali Temporale con Pioggia 25 19 69 1017 8 N 7.4
Ieri h: 20:50 molto_nuvoloso Molto Nuvoloso 26 19 65 1017 10 N 5.5
Ieri h: 20:20 molto_nuvoloso Molto Nuvoloso 27 19 61 1017 10 N 5.5
Ieri h: 19:50 molto_nuvoloso Molto Nuvoloso 28 18 54 1017 10 N 5.5
Ieri h: 19:20 nuvoloso Nuvoloso 29 17 48 1016 10 S 7.4
Ieri h: 18:50 nuvoloso Nuvoloso 29 16 45 1016 10 S/SE 13